User: anonymous   Login
Location: Caltech
(34.1382°N, 118.1253°W)
Time: 17:33:18
(UTC-08:00)
Language:

ADEOS II - Orbit

View from above orbital plane
View from above orbital plane
View from above satellite
View from above satellite

Ground track
Ground track

The orbit data is extracted from the following two-line orbital elements,

1 27597U 02056A   14356.51455884  .00000592  00000-0  26037-3 0  4804
2 27597 098.2788 354.3191 0002153 111.5519 359.0952 14.26961643625956
Epoch (UTC): 22 December 2014 12:20:57
Eccentricity: 0.0002153
inclination: 98.2788°
perigee height: 800 km
apogee height: 803 km
right ascension of ascending node: 354.3191°
argument of perigee: 111.5519°
revolutions per day: 14.26961643
mean anomaly at epoch: 359.0952°
orbit number at epoch: 62595

The dashed part of the orbit path shows where the satellite is in the earth's shadow,  

DLR